This demonstration page uses our WeatherBlox Daily Observations layout. Learn more.

Left ArrowRight Arrow

Hourly Observations for April 13, 2021

Temp ( °F °C ) Dew Point ( °F °C ) Humidity (%) Winds ( mph kmh ) Pressure ( in mb ) Visibility ( mi km ) Precip ( " mm )
12:56 am 00:56 Clear 43 6.3 42 5.4 94 94 Calm 30.01 1016 10 16.0934 0 0
1:56 am 01:56 Clear 43 6 41 5 93 93 Calm 30.03 1017 10 16.0934 0 0
2:56 am 02:56 Clear 42 5.7 40 4.3 91 91 Calm 30.05 1018 10 16.0934 0 0
3:56 am 03:56 Clear 41 5.2 39 3.9 91 91 Calm 30.05 1018 10 16.0934 0 0
4:56 am 04:56 Clear 40 4.2 37 2.9 91 91 S 5 7 30.06 1018 10 16.0934 0 0
5:56 am 05:56 Mostly Cloudy 41 4.8 38 3.5 91 91 Calm 30.07 1018 10 16.0934 0 0
6:56 am 06:56 Mostly Clear 40 4.3 37 3 91 91 Calm 30.09 1019 10 16.0934 0 0
7:56 am 07:56 Mostly Sunny 42 5.5 40 4.3 92 92 ESE 3 6 30.09 1019 10 16.0934 0 0
8:56 am 08:56 Cloudy 47 8.5 42 5.8 83 83 Calm 30.12 1020 10 16.0934 0 0
9:56 am 09:56 Mostly Cloudy 50 9.9 40 4.3 68 68 Calm 30.14 1021 10 16.0934 0 0
10:56 am 10:56 Cloudy 52 11.2 39 3.7 60 60 Calm 30.16 1022 10 16.0934 0 0
11:56 am 11:56 Sunny 56 13.6 38 3.6 51 51 W 3 6 30.16 1021 10 16.0934 0 0
12:56 pm 12:56 Mostly Sunny 59 15 35 1.8 41 41 Calm 30.14 1021 10 16.0934 0 0
1:56 pm 13:56 Partly Cloudy 62 16.7 36 2.3 38 38 WSW 10 17 30.12 1020 10 16.0934 0 0
2:56 pm 14:56 Mostly Cloudy 64 17.7 37 2.8 37 37 WNW 5 7 30.11 1020 10 16.0934 0 0
3:56 pm 15:56 Partly Cloudy 65 18.4 38 3.1 36 36 W 12 19 30.1 1019 10 16.0934 0 0
4:56 pm 16:56 Partly Cloudy 65 18.6 38 3.2 36 36 W 10 17 30.08 1019 10 16.0934 0 0
5:56 pm 17:56 Mostly Sunny 66 18.9 40 4.6 39 39 SW 7 11 30.08 1019 10 16.0934 0 0
6:56 pm 18:56 Mostly Cloudy 63 17.2 39 3.8 41 41 W 8 13 30.08 1019 10 16.0934 0 0
7:56 pm 19:56 Mostly Cloudy 62 16.9 39 3.9 42 42 W 9 15 30.08 1019 10 16.0934 0 0
8:56 pm 20:56 Clear 59 14.8 39 3.9 48 48 W 5 7 30.09 1019 10 16.0934 0 0
9:56 pm 21:56 Clear 50 9.8 42 5.4 74 74 Calm 30.11 1020 10 16.0934 0 0
10:56 pm 22:56 Mostly Clear 51 10.6 41 4.9 68 68 W 6 9 30.12 1020 10 16.0934 0 0
11:56 pm 23:56 Clear 54 12.1 40 4.6 60 60 NW 3 6 30.11 1020 10 16.0934 0 0

Powered by AerisWeather